THORAD AGENA D DEB

Satellite information

Favourite Embed

Satellite Type and Status

DEBRISIN ORBIT

Key statistics

Satellite THORAD AGENA D DEB at a glance.

Uptime

20339

Days in orbit

Revolutions

≈ 13.6

Per day

Orbit

SSO

Sun Synchronous Orbit

Inclination

100.1

Latest

Satellite identification and parameters

Extended collection of information and parameters for THORAD AGENA D DEB.

Object identification

Identified? True

Debris? True

Object name: THORAD AGENA D DEB

International designator: 1970-025NT

Object number (NORAD): 14467

Object ID (CCSDS): 14467

Country: UNITED STATES OF AMERICA (US)

Current information (Y/N): Y

RCS size: SMALL

Orbital parameters

Period: 105.538 minutes

Inclination: 100.061 deg

SMA: 7397.737 km

Apoapsis: 1020.884 km

Periapsis: 1018.32 km

RAAN: 211.6889 deg

Eccentricy: 0.00017331

Argument of periapsis: 106.2115 deg

Mean anomaly: 269.9139 deg

Mean motion: 13.64439871 rev/day

Mean motion (dot): 0.00000469 rev/day2

B* drag term: 0.00064528303 1/REarth

Two-line elements (TLE)

Creation date: Dec. 8, 2025, 3:46 a.m.

Reference frame: TEME

Reference center: EARTH

Epoch: Dec. 7, 2025, 10:16 p.m. UTC

TLE line 0: 0 THORAD AGENA D DEB

TLE line 1: 1 14467U 70025NT 25341.92812458 .00000469 00000-0 64528-3 0 9997

TLE line 2: 2 14467 100.0610 211.6889 0001733 106.2115 269.9139 13.64439871135719

Live tracking on map

Real-time ground track for satellite THORAD AGENA D DEB.

In-orbit conjunctions

A list of the most updated potential collisions computed for object THORAD AGENA D DEB.

Target Orbit TCA Probability of collision Miss distance Type
THOR ABLESTAR DEB LEO 2025-06-26 19:51:27 0.0001013306 172.0 (m) DEBRIS
CZ-6A DEB SSO 2024-10-02 08:05:38 0.0001281914 84.0 (m) DEBRIS

Associated space launch

Meteorological research and development satellite

THORAD AGENA D DEB was lifted into orbit during the mission ‘Thorad SLV-2G Agena D | Nimbus 4’, on board a Thorad SLV-2G Agena D space rocket.

The launch took place on April 8, 1970, 8:17 a.m. from Space Launch Complex 2E.

For more information about the launch, click the button.

Launch to space Thorad SLV-2G Agena D | Nimbus 4
Thorad SLV-2G Agena D | Nimbus 4

Agency: N/A

Status: Launch Successful

Launch date: April 8, 1970, 8:17 a.m. UTC

Rocket: Thorad SLV-2G Agena D

Launch pad: Space Launch Complex 2E

Location: Vandenberg SFB, CA, USA

...

Latest news about this satellite

There are no fresh news available about this satellite. Check back as we update our databases every day.


Newsletter sign-up

Weekly statistics, charts and insights to help you stay on top of the space industry.